Date String (YYYY-MM-DD hh:mm:ss) UTC,Instrument flags,Ambient pressure (hPa),Sample flow (lpm),Bypass flow (lpm),Sample temperature (°C),Ambient temperature (°C),ASC tube jacket temperature (°C),LED temperature (°C),Box temperature (°C),Sample RH (%),Span deviation,Mass concentration (μg/m³),Mass concentration (μg/m³),Mass concentration (μg/m³)
DateTimeUTC,F1_M11,P_M11,Q1_M11,Q2_M11,T1_M11,T2_M11,T3_M11,T4_M11,T5_M11,U1_M11,ZSPAN_M11,X2_M11,X0_M11,X1_M11
2021-12-18 18:00:00,,0830.1,5.00,0.00,23.7,22.9,00.0,32.6,25.5,08.4,0000.0,0005.47,0011.82,0004.77
2021-12-18 18:01:00,,0830.1,5.00,0.00,23.7,22.9,00.0,32.6,25.5,08.4,0000.0,0005.41,0010.52,0004.74
2021-12-18 18:02:00,,0830.1,5.01,0.00,23.7,22.9,00.0,32.6,25.5,08.4,0000.0,0005.36,0010.31,0004.72
2021-12-18 18:03:00,,0830.0,4.99,0.00,23.7,22.9,00.0,32.7,25.5,08.4,0000.0,0005.36,0010.96,0004.69
2021-12-18 18:04:00,,0829.9,5.00,0.00,23.7,22.9,00.0,32.7,25.5,08.4,0000.0,0005.32,0011.38,0004.66
2021-12-18 18:05:00,,0829.9,5.00,0.00,23.7,22.9,00.0,32.7,25.5,08.4,0000.0,0005.26,0011.52,0004.62
2021-12-18 18:06:00,,0829.8,5.00,0.00,23.7,22.9,00.0,32.7,25.5,08.4,0000.0,0005.26,0011.81,0004.61
2021-12-18 18:07:00,,0829.8,5.01,0.00,23.7,22.9,00.0,32.7,25.5,08.4,0000.0,0005.22,0011.67,0004.58
2021-12-18 18:08:00,,0829.8,5.00,0.00,23.7,22.9,00.0,32.7,25.5,08.4,0000.0,0005.23,0011.57,0004.57
2021-12-18 18:09:00,,0829.8,4.99,0.00,23.8,22.9,00.0,32.7,25.5,08.4,0000.0,0005.22,0011.56,0004.57
2021-12-18 18:10:00,,0829.8,5.01,0.00,23.8,23.0,00.0,32.7,25.5,08.4,0000.0,0005.19,0010.91,0004.57
2021-12-18 18:11:00,,0829.8,4.99,0.00,23.8,23.0,00.0,32.7,25.5,08.4,0000.0,0005.19,0011.14,0004.56
2021-12-18 18:12:00,,0829.8,5.01,0.00,23.8,23.0,00.0,32.7,25.6,08.3,0000.0,0005.21,0011.09,0004.57
2021-12-18 18:13:00,,0829.8,5.00,0.00,23.8,23.0,00.0,32.7,25.6,08.3,0000.0,0005.17,0010.81,0004.56
2021-12-18 18:14:00,,0829.8,5.00,0.00,23.8,23.0,00.0,32.7,25.6,08.4,0000.0,0005.15,0010.09,0004.55
2021-12-18 18:15:00,,0829.7,5.00,0.00,23.8,23.0,00.0,32.7,25.6,08.4,0000.0,0005.14,0009.62,0004.54
2021-12-18 18:16:00,,0829.7,5.00,0.00,23.8,23.0,00.0,32.8,25.6,08.4,0000.0,0005.14,0009.41,0004.55
2021-12-18 18:17:00,,0829.7,4.99,0.00,23.8,23.0,00.0,32.8,25.6,08.4,0000.0,0005.09,0009.09,0004.55
2021-12-18 18:18:00,,0829.7,5.01,0.00,23.8,23.0,00.0,32.8,25.6,08.3,0000.0,0005.08,0008.96,0004.55
2021-12-18 18:19:00,,0829.6,5.00,0.00,23.9,23.0,00.0,32.8,25.6,08.3,0000.0,0005.07,0009.74,0004.55
2021-12-18 18:20:00,,0829.6,4.99,0.00,23.9,23.1,00.0,32.8,25.7,08.3,0000.0,0005.09,0009.78,0004.55
2021-12-18 18:21:00,,0829.6,5.00,0.00,23.9,23.1,00.0,32.8,25.7,08.3,0000.0,0005.09,0009.69,0004.55
2021-12-18 18:22:00,,0829.6,4.99,0.00,23.9,23.1,00.0,32.8,25.7,08.3,0000.0,0005.09,0009.47,0004.56
2021-12-18 18:23:00,,0829.6,5.02,0.00,23.9,23.1,00.0,32.8,25.7,08.4,0000.0,0005.12,0010.62,0004.56
2021-12-18 18:24:00,,0829.6,4.99,0.00,23.9,23.1,00.0,32.8,25.7,08.3,0000.0,0005.15,0010.96,0004.57
2021-12-18 18:25:00,,0829.6,5.01,0.00,23.9,23.1,00.0,32.8,25.7,08.3,0000.0,0005.18,0011.07,0004.58
2021-12-18 18:26:00,,0829.5,4.99,0.00,23.9,23.1,00.0,32.9,25.7,08.3,0000.0,0005.21,0011.85,0004.60
2021-12-18 18:27:00,,0829.6,5.00,0.00,23.9,23.1,00.0,32.9,25.7,08.3,0000.0,0005.27,0012.59,0004.61
2021-12-18 18:28:00,,0829.6,5.00,0.00,23.9,23.2,00.0,32.9,25.7,08.3,0000.0,0005.32,0013.45,0004.62
2021-12-18 18:29:00,,0829.6,4.99,0.00,23.9,23.2,00.0,32.9,25.8,08.3,0000.0,0005.34,0013.75,0004.62
2021-12-18 18:30:00,,0829.6,5.01,0.00,24.0,23.2,00.0,32.9,25.8,08.3,0000.0,0005.34,0013.14,0004.61
2021-12-18 18:31:00,,0829.5,5.00,0.00,24.0,23.2,00.0,32.9,25.9,08.3,0000.0,0005.32,0012.89,0004.61
2021-12-18 18:32:00,,0829.5,4.99,0.00,24.0,23.2,00.0,32.9,25.9,08.2,0000.0,0005.34,0013.27,0004.61
2021-12-18 18:33:00,,0829.5,5.00,0.00,24.0,23.2,00.0,32.9,25.9,08.2,0000.0,0005.38,0013.29,0004.61
2021-12-18 18:34:00,,0829.5,4.98,0.00,24.0,23.2,00.0,32.9,25.9,08.2,0000.0,0005.37,0012.30,0004.60
2021-12-18 18:35:00,,0829.6,4.99,0.00,24.0,23.2,00.0,32.9,25.9,08.3,0000.0,0005.36,0012.25,0004.59
2021-12-18 18:36:00,,0829.5,5.01,0.00,24.0,23.3,00.0,33.0,25.9,08.2,0000.0,0005.35,0012.66,0004.58
2021-12-18 18:37:00,,0829.5,4.98,0.00,24.0,23.3,00.0,33.0,25.9,08.2,0000.0,0005.33,0012.09,0004.57
2021-12-18 18:38:00,,0829.5,5.01,0.00,24.0,23.3,00.0,33.0,25.9,08.2,0000.0,0005.29,0011.38,0004.56
2021-12-18 18:39:00,,0829.5,4.99,0.00,24.1,23.3,00.0,33.0,25.9,08.2,0000.0,0005.23,0010.61,0004.54
2021-12-18 18:40:00,,0829.5,5.01,0.00,24.1,23.3,00.0,33.0,25.9,08.2,0000.0,0005.24,0010.22,0004.54
2021-12-18 18:41:00,,0829.5,4.99,0.00,24.1,23.3,00.0,33.0,26.0,08.2,0000.0,0005.27,0010.67,0004.53
2021-12-18 18:42:00,,0829.4,4.99,0.00,24.1,23.3,00.0,33.0,26.0,08.2,0000.0,0005.30,0011.16,0004.53
2021-12-18 18:43:00,,0829.3,5.00,0.00,24.1,23.3,00.0,33.0,26.0,08.2,0000.0,0005.27,0011.01,0004.52
2021-12-18 18:44:00,,0829.3,5.01,0.00,24.1,23.4,00.0,33.1,26.0,08.2,0000.0,0005.21,0010.75,0004.51
2021-12-18 18:45:00,,0829.3,4.99,0.00,24.1,23.4,00.0,33.1,26.0,08.1,0000.0,0005.22,0011.51,0004.52
2021-12-18 18:46:00,,0829.2,5.01,0.00,24.1,23.4,00.0,33.1,25.8,08.1,0000.0,0005.21,0012.03,0004.52
2021-12-18 18:47:00,,0829.4,5.01,0.00,24.2,23.4,00.0,33.1,26.0,08.1,0000.0,0005.20,0011.75,0004.52
2021-12-18 18:48:00,,0829.2,4.99,0.00,24.2,23.4,00.0,33.1,26.0,08.1,0000.0,0005.16,0011.34,0004.52
2021-12-18 18:49:00,,0829.3,5.00,0.00,24.2,23.4,00.0,33.1,26.0,08.1,0000.0,0005.20,0011.68,0004.51
2021-12-18 18:50:00,,0829.2,5.00,0.00,24.2,23.4,00.0,33.1,26.1,08.2,0000.0,0005.22,0012.22,0004.52
2021-12-18 18:51:00,,0829.2,4.99,0.00,24.2,23.4,00.0,33.1,26.1,08.1,0000.0,0005.19,0012.60,0004.50
2021-12-18 18:52:00,,0829.2,5.00,0.00,24.2,23.4,00.0,33.1,26.1,08.1,0000.0,0005.11,0012.09,0004.49
2021-12-18 18:53:00,,0829.2,5.01,0.00,24.2,23.4,00.0,33.1,26.1,08.1,0000.0,0005.06,0012.16,0004.48
2021-12-18 18:54:00,,0829.2,4.99,0.00,24.2,23.5,00.0,33.2,26.1,08.1,0000.0,0005.09,0012.99,0004.48
2021-12-18 18:55:00,,0829.3,5.00,0.00,24.2,23.5,00.0,33.2,26.1,08.1,0000.0,0005.11,0013.53,0004.48
2021-12-18 18:56:00,,0829.2,5.01,0.00,24.2,23.5,00.0,33.2,26.1,08.1,0000.0,0005.10,0013.52,0004.46
2021-12-18 18:57:00,,0829.2,4.99,0.00,24.3,23.5,00.0,33.2,26.1,08.1,0000.0,0005.09,0013.16,0004.46
2021-12-18 18:58:00,,0829.2,5.01,0.00,24.3,23.6,00.0,33.2,26.1,08.1,0000.0,0005.10,0013.38,0004.44
2021-12-18 18:59:00,,0829.3,4.99,0.00,24.3,23.6,00.0,33.2,26.2,08.1,0000.0,0005.13,0013.85,0004.44
